Markham, Ontario

2:06 AM EST on February 13, 2016 (GMT -0500)
Toronto-Buttonville Municipal

Weather History for CYKZ - October, 2013

Change the Weather History Date:

Wednesday, October 23, 2013

  Actual Average Record
Temperature  
Mean Temperature 42 °F -  
Max Temperature 48 °F 51 °F 66 °F (1998)
Min Temperature 35 °F 37 °F 30 °F (1997)
Degree Days  
Heating Degree Days 24    
Moisture  
Dew Point 32 °F    
Average Humidity 72    
Maximum Humidity 93    
Minimum Humidity 46    
Precipitation  
Precipitation 0.00 in - - ()
Sea Level Pressure  
Sea Level Pressure 29.78 in    
Wind  
Wind Speed 5 mph ()    
Max Wind Speed 14 mph    
Max Gust Speed 20 mph    
Visibility 15.0 miles    
Events      
Averages and records for this station are not official NWS values.
T = Trace of Precipitation, MM = Missing Value Source: Averaged Metar Reports

Daily Weather History Graph

Daily Weather History Graph

Search for Another Location

Airport or City:

Trip Planner

Search our weather history database for the weather conditions in past years. The results will help you decide how hot, cold, wet, or windy it might be!

Date:

Astronomy

Oct. 23, 2013 Rise Set
Actual Time 7:42 AM EDT 6:20 PM EDT
Civil Twilight 7:12 AM EDT 6:49 PM EDT
Nautical Twilight 6:39 AM EDT 7:23 PM EDT
Astronomical Twilight 6:05 AM EDT 7:56 PM EDT
Moon 9:45 PM EDT (10/23) 12:03 PM EDT (10/23)
Length of Visible Light 11h 37m
Length of Day
10h 38m
Waning Gibbous, 79% of the Moon is Illuminated
Oct 23
Waning Gibbous
Oct 26
Last Quarter
Nov 3
New
Nov 10
First Quarter
Nov 17
Full

Hourly Weather History & Observations

Time (EDT) Temp. Windchill Dew Point Humidity Pressure Visibility Wind Dir Wind Speed Gust Speed Precip Events Conditions
12:00 AM 41.0 °F 38.0 °F 33.8 °F 76% 29.81 in 15.0 mi WSW 4.6 mph - N/A   Scattered Clouds
1:00 AM 39.2 °F 34.2 °F 35.6 °F 87% 29.81 in 15.0 mi WSW 6.9 mph - N/A   Mostly Cloudy
2:00 AM 37.4 °F 33.8 °F 35.6 °F 93% 29.80 in 15.0 mi WNW 4.6 mph - N/A   Mostly Cloudy
3:00 AM 39.2 °F 37.0 °F 33.8 °F 81% 29.79 in 15.0 mi SSW 3.5 mph - N/A   Mostly Cloudy
4:00 AM 37.4 °F - 33.8 °F 87% 29.78 in 15.0 mi Calm Calm - N/A   Mostly Cloudy
5:00 AM 37.4 °F - 35.6 °F 93% 29.76 in 15.0 mi Calm Calm - N/A   Mostly Cloudy
6:00 AM 37.4 °F - 35.6 °F 93% 29.76 in 15.0 mi Calm Calm - N/A   Mostly Cloudy
7:00 AM 37.4 °F - 35.6 °F 93% 29.76 in 15.0 mi Calm Calm - N/A   Overcast
8:00 AM 39 °F - 36 °F 84% 29.77 in 15 mi West 2.3 mph - -   Mostly Cloudy
8:00 AM 39.2 °F - 35.6 °F 87% 29.77 in 15.0 mi WNW 2.3 mph - N/A   Mostly Cloudy
9:00 AM 41.0 °F 38.0 °F 35.6 °F 81% 29.78 in 15.0 mi West 4.6 mph - N/A   Partly Cloudy
10:00 AM 41.0 °F 37.1 °F 33.8 °F 76% 29.77 in 15.0 mi NNW 5.8 mph - N/A   Mostly Cloudy
11:00 AM 42.8 °F 39.3 °F 33.8 °F 70% 29.76 in 15.0 mi NNW 5.8 mph - N/A   Mostly Cloudy
12:00 PM 44.6 °F 39.2 °F 33.8 °F 66% 29.76 in 15.0 mi NW 10.4 mph - N/A   Mostly Cloudy
1:00 PM 46.4 °F 40.7 °F 32.0 °F 57% 29.75 in 15.0 mi NW 12.7 mph 18.4 mph N/A   Mostly Cloudy
2:00 PM 45 °F - 31 °F 46% 29.74 in 15 mi NW 13.8 mph - -   Mostly Cloudy
2:00 PM 44.6 °F 38.4 °F 32.0 °F 61% 29.74 in 15.0 mi NW 12.7 mph 18.4 mph N/A   Mostly Cloudy
3:00 PM 44.6 °F 38.4 °F 32.0 °F 61% 29.74 in 15.0 mi NNW 12.7 mph - N/A   Mostly Cloudy
4:00 PM 46.4 °F 41.5 °F 32.0 °F 57% 29.75 in 15.0 mi NW 10.4 mph - N/A   Mostly Cloudy
5:00 PM 44.6 °F 38.1 °F 26.6 °F 49% 29.76 in 15.0 mi NNW 13.8 mph 19.6 mph N/A   Partly Cloudy
6:00 PM 42.8 °F 37.0 °F 26.6 °F 53% 29.78 in 15.0 mi NNW 10.4 mph - N/A   Partly Cloudy
7:00 PM 39.2 °F 37.0 °F 26.6 °F 61% 29.79 in 15.0 mi WNW 3.5 mph - N/A   Partly Cloudy
8:00 PM 39 °F - 26 °F 48% 29.81 in 15 mi WNW 6.9 mph - -  
8:00 PM 39.2 °F 33.6 °F 26.6 °F 61% 29.81 in 15.0 mi WNW 8.1 mph - N/A   Clear
9:00 PM 37.4 °F 33.8 °F 26.6 °F 65% 29.81 in 15.0 mi West 4.6 mph - N/A   Clear
10:00 PM 35.6 °F 31.7 °F 26.6 °F 70% 29.81 in 15.0 mi West 4.6 mph - N/A   Partly Cloudy
11:00 PM 35.6 °F 30.7 °F 30.2 °F 81% 29.82 in 15.0 mi West 5.8 mph - N/A   Partly Cloudy